Regional Weather Roundup
Issued by NWS Newport/Morehead, NC

Current Version | Previous Version | Graphics & Text | Print | Product List | Glossary On
Versions: 1 2 3 4 5 6 7 8 9 10 11 12 13 14 15 16 17 18 19 20 21 22 23 24 25 26 27 28 29 30 31 32 33 34 35 36 37 38 39 40 41 42 43 44 45 46 47 48 49 50
000 ASUS42 KMHX 300013 RWRMHX WEATHER ROUNDUP FOR EASTERN NORTH CAROLINA NATIONAL WEATHER SERVICE NEWPORT/MOREHEAD CITY NC 800 PM EDT SUN MAY 29 2016 NOTE: "FAIR" INDICATES FEW OR NO CLOUDS BELOW 12,000 FEET WITH NO SIGNIFICANT WEATHER AND/OR OBSTRUCTIONS TO VISIBILITY NCZ015>017-031-032-045>047-102-103-300100- NORTH COAST CITY SKY/WX TMP DP RH WIND PRES REMARKS EDENTON CLOUDY 79 68 69 SE9 30.04S ELIZABETH CITY CLOUDY 77 72 84 S7 30.05R KITTY HAWK CLOUDY 77 73 85 S5 30.05R MANTEO NOT AVBL $$ NCZ045>047-081-094-103-104-300100- CENTRAL COAST CITY SKY/WX TMP DP RH WIND PRES REMARKS FRISCO CLOUDY 76 74 93 S9 30.05S $$ NCZ095-097-098-100-101-300100- SOUTHERN COAST CITY SKY/WX TMP DP RH WIND PRES REMARKS BEAUFORT PTCLDY 77 73 87 SE7 30.03S CEDAR ISLAND NOT AVBL JACKSONVILLE CLOUDY 75 71 87 SE6 30.00F PINEY ISLAND PTCLDY N/A N/A N/A SE7 30.03S WILMINGTON PTCLDY 77 71 82 SE5 29.98F $$ NCZ011>013-027>030-043-044-078>080-089-090>093-098-300100- COASTAL PLAIN CITY SKY/WX TMP DP RH WIND PRES REMARKS AHOSKIE CLOUDY 78 73 83 SE3 30.03R CLINTON MOCLDY 75 74 96 CALM 30.01R ELIZABETHTOWN MOCLDY 77 71 80 CALM 29.99R GOLDSBORO NOT AVBL GREENVILLE CLOUDY 81 72 74 S7 30.03S HAVELOCK MOCLDY 77 72 84 SE7 30.03S KENANSVILLE LGT RAIN 75 73 92 CALM 30.02R KINSTON CLOUDY 81 70 69 SE14 30.02S NEW BERN CLOUDY 78 71 79 SE5 30.03S RICHLANDS MOCLDY 75 73 93 E5 30.02R ROCKY MOUNT PTCLDY 78 71 79 CALM 30.01R WASHINGTON PTCLDY 78 72 80 SE5 30.03R WHITEVILLE CLOUDY 78 68 73 E5 29.97S $$ AMZ130-135-150-152-154-156-158-170-250-252-270-ANZ085-086-088-633-658-670-300100- MARINE OBSERVATIONS STATION/POSITION TIME TEMP WIND PRES WAVE SWELL AIR SEA DIR/SP/G HT/PER HT/PER (UTC) (F) (DEG/KT/KT) (MB) (FT/S) (FT/S) CHESAPEAKE LIGHT 0000 71 150/ 13/ 13 1018.3 64 E VA BEACH 2350 69 64 160/ 10/ 12 1018.3 4/ 6 3/ 6 DUCK 2300 62 1016.8 2 E DUCK 2311 66 N/A 3/ 8 OREGON INLET 2300 79 1017.5 13E OREGON INLT 0000 70 N/A 4/ 6 3/ 6 HATTERAS CG 2300 77 1017.0 DIAMOND BUOY 2350 79 82 150/ 17/ 21 1017.1 5/ 8 3/ 8 CAPE LOOKOUT 0000 76 140/ 7/ 8 1016.5 BEAUFORT LAB 2300 76 1016.0 30 SE NEW RVR IN 2325 75 N/A 6/ 7 27 SE WRIGHTSVLE 2308 79 76 160/ 12/ 17 1015.6 5 SE WRIGHTSVLE 2308 76 76 130/ 6/ 8 1016.1 225 S CAPE HAT 2350 75 76 120/ 14/ 17 1018.1 4/ 6 2/ 8 41 SE CHARLESTON 2350 73 78 200/ 16/ 19 1012.8 5/ 6 3/ 8 $$

USA.gov is the U.S. government's official web portal to all federal, state and local government web resources and services.